Погода в Михайловке

Погода в Михайловке : погода сейчас, прогноз погоды и архив. Всё, что Вы хотите узнать о погоде в Михайловке!

Поиск расширенной информации на нашем сайте:

Другие новости

Новости СМИ2

Главная страница сайта

Новости сайта

03.07.2017

Напоминаем, что на нашем специализированном сайте Метеоцентр.Азия вы можете получить высокодетализированные автоматические прогнозы погоды по пунктам России, СНГ и мира в авиационном формате (включающие направление и скорость ветра, видимость, явления погоды, количество и форму облачности, нижнюю и верхнюю границу облачности).


Погода в Михайловке - сегодня

Время (UTC), дата Ветер
(°,м/с) 
Видим.   Явления Облачность Т
(°С)
Тd
(°С)
f(%) Тe
(°С)
Pmin
(гПа)
dP
(гПа)
Po
(мм)
O2
(г/м3)
Тmin Tmax R s Состояние
почвы
18 14.10.17 100 (В) н/о    ясно 
+0.4 -4.6 69 -2  1016.9  -1.3  752  303    +11.2       
21 14.10.17 100 (В) н/о    8/0 средняя, верхняя 
[Ac trans|Ci fib]
+0.2 -3.2 78 -2  1014.8  -2.1  750  302           
00 15.10.17 110 (В) н/о    10/0 средняя, верхняя 
[Ac trans|Ci fib]
+1.2 -2.2 78 1013.3  -1.4  749  301           
03 15.10.17 080 (В) 10 км    10/10 600 м 
[Sc]
+2.1 -2 74 -1  1011.6  -1.6  748  299           
06 15.10.17 170 (Ю) 10 км    10/10 600 м 
[Sc]
+5.6 -0.9 63 +5  1010.2  -1.2  747  295  -0.7         
09 15.10.17 180 (Ю) 10 км    10/10 600 м 
[Sc]
+7.7 -0.3 57 +8  1009.6  -0.5  747  293           
12 15.10.17 210 (ЮЗ) 10 км  слаб. дождь  10/10 300 м 
[Ns]
+6.3 +5.9 97 +5  1010.6  0.9  747  293           
15 15.10.17 210 (ЮЗ) н/о  {дождь}  10/10 300 м 
[Frnb]
+7.6 +7.2 97 +6  1011.2  0.7  748  292    +7.8  0.5     
18 15.10.17 230 (ЮЗ) н/о  {дождь}  10/10 300 м 
[Frnb]
+6.2 +4.7 90 +5  1011.5  0.2  748  294    +7.8  0.5     
21 15.10.17 250 (З) н/о    10/10 300 м 
[Frnb]
+5.7 +5.1 96 +4  1012.1  0.6  749  295           
00 16.10.17 270 (З) н/о    10/10 600 м 
[Sc]
+4.6 +3.6 93 +3  1013.8  1.6  750  297           
03 16.10.17 260 (З) 2000 м  дымка  10/10 600 м 
[Sc]
+4.1 +4.1 100 +4  1016.1  2.2  751  298           
06 16.10.17 270 (З) 4000 м  дымка  10/10 600 м 
[Sc]
+4.3 +3.7 96 +3  1017.6  1.5  753  298  +4         
09 16.10.17 300 (СЗ) 10 км    10/10 600 м 
[Sc]
+5.3 +3.6 89 +4  1018.8  1.3  754  297           
12 16.10.17 тихо ()   10 км    10/10 600 м 
[Sc]
+5.4 +3.6 88 +5  1020.2  1.3  755  298           
15 16.10.17 тихо ()   н/о    10/5 600 м верхняя 
[Sc|Ci fib]
+4.4 +3.2 92 +4  1021.6  1.4  756  299    +5.6       
18 16.10.17 290 (З) н/о  туман  ясно 
+0.3 +0.2 99 +1  1022.4  0.5  756  304    +5.6       
21 16.10.17 тихо ()   н/о  в посл. час туман  8/0 верхняя 
[Ci fib]
-0.9 -0.9 100 -1  1022.6  0.2  756  306           
00 17.10.17 тихо ()   н/о  дымка{туман}  10/4 600 м средняя, верхняя 
[Sc|Ac trans|Ci fib]
+0.3 +0.2 99 1023.1  0.5  756  304           
03 17.10.17 070 (В) 4000 м  дымка  10/10 600 м 
[Sc]
+3.2 +2.3 94 +2  1023.2  0.3  757  301           
06 17.10.17 100 (В) 4000 м  слаб. морось  10/10 300 м 
[St]
+4.5 +3.8 95 +3  1022.9  -0.2  757  299  -2.2         
09 17.10.17 070 (В) 10 км  {дождь, морось}  10/8 300 м кучево-дожд., средняя 
[Cb calv|Ac trans]
+6.3 +4.3 87 +5  1021.3  -1.5  755  297           
12 17.10.17 030 (СВ) 10 км  {дождь}  4/0 средняя, верхняя 
[Ac trans|Ci fib]
+4.5 +3.3 92 +3  1020.6  -0.8  755  299           
15 17.10.17 080 (В) н/о    ясно 
+3.4 +2.2 92 +1  1019.4  -1.2  754  300    +7.5  0.0     
18 17.10.17 080 (В) н/о    ясно 
+2 +1.1 94 1017.7  -1.8  753  301    +7.5  0.0     
Время (UTC), дата Ветер
(°,м/с) 
Видим.   Явления Облачность Т
(°С)
Тd
(°С)
f(%) Тe
(°С)
Pmin
(гПа)
dP
(гПа)
Po
(мм)
O2
(г/м3)
Тmin Tmax R s Состояние
почвы

Для получения пояснительной информации подведите курсор к названию столбца.

ПОГОДА в Михайловке - архив

Всё, что Вы хотите узнать о погоде в Михайловке - удобно и подробно!

Выберите нужную дату (начиная с 1 января 2015* года) и нажмите кнопку "Найти".
Будут отображены архивные сводки погоды по пункту Михайловка, начиная с указанной даты.


Отображать данные в формате CSV (для использования в таблицах Excel)


Внимание! Наш архив погоды предназначен исключительно для личного некоммерческого использования в познавательных целях. Если Вам необходимы официальные справки о состоянии погоды (для производственных, юридических, коммерческих и т.п. целей), обращайтесь в органы Росгидромета.

*Примечание: данная дата относится к архиву по метеостанциям СССР (Россия, СНГ, Балтия).
Архив по метеостанциям Зарубежной Европы и Азии (кроме Китая) хранится 10 дней, по другим регионам земного шара (Китай, Африка, Америка, Австралия, Океания) - 1 день.

Михайловка - район местоположения метеостанции


Название, широта, долгота, высота метеостанции:
Михайловка 53.8°ш. 76.5°д. 114 м над ур. моря [Казахстан]

Дополнительная информация

В oтличие oт бoльшинства пoгoдных сайтoв мы публикуем пoдрoбную метеoинфoрмацию в детальнoм прoфессиoнальнoм фoрмате.

Характеристики температуры и влажнoсти вoздуха измеряются на высoте 2 м в тени вдали oт зданий и деревьев.
Скoрoсть ветра измеряется на высoте 10 м (на урoвне рoста челoвека скoрoсть ветра ниже в 1.5-2 раза). Если метеoстанция нахoдится в гoрoде или в лесу, тo скoрoсть ветра занижена на 2-4 м/с пo сравнению с oткрытым местoм. Скoрoсть ветра над акватoриями крупных рек и oзёр, а также на вершинах хoлмoв на 2-5 м/с выше, чем в oбычных услoвиях.
Атмoсфернoе давление в разных тoчках местнoсти мoжет значительнo oтличаться oт давления на метеoстанции, в зависимoсти oт услoвий рельефа (при пoдъёме на 10 м давление пoнижается примернo на 1 мм рт.ст.).